TimeCST,TemperatureF,Dew PointF,Humidity,Sea Level PressureIn,VisibilityMPH,Wind Direction,Wind SpeedMPH,Gust SpeedMPH,PrecipitationIn,Events,Conditions,WindDirDegrees,DateUTC
12:15 AM,21.2,21.2,100,29.83,5.0,SE,6.9,-,N/A,,Clear,140,2013-02-24 06:15:00
12:35 AM,21.2,19.4,93,29.83,4.0,Calm,Calm,-,N/A,,Clear,0,2013-02-24 06:35:00
12:55 AM,21.2,21.2,100,29.83,7.0,SE,5.8,-,N/A,,Clear,140,2013-02-24 06:55:00
1:15 AM,23.0,21.2,93,29.83,7.0,SSE,6.9,-,N/A,,Clear,150,2013-02-24 07:15:00
1:35 AM,24.8,23.0,93,29.83,7.0,SE,8.1,-,N/A,,Clear,140,2013-02-24 07:35:00
1:55 AM,23.0,23.0,100,29.83,7.0,SE,6.9,-,N/A,,Clear,140,2013-02-24 07:55:00
2:15 AM,23.0,21.2,93,29.83,7.0,SE,8.1,-,N/A,,Clear,130,2013-02-24 08:15:00
2:35 AM,21.2,21.2,100,29.82,7.0,SE,8.1,-,N/A,,Clear,130,2013-02-24 08:35:00
2:55 AM,21.2,21.2,100,29.82,7.0,SE,8.1,-,N/A,,Clear,140,2013-02-24 08:55:00
3:15 AM,21.2,21.2,100,29.81,7.0,ESE,6.9,-,N/A,,Clear,120,2013-02-24 09:15:00
3:35 AM,21.2,19.4,93,29.81,7.0,SE,9.2,-,N/A,,Clear,130,2013-02-24 09:35:00
3:55 AM,21.2,21.2,100,29.81,7.0,SE,9.2,-,N/A,,Clear,130,2013-02-24 09:55:00
4:15 AM,21.2,21.2,100,29.81,7.0,SE,9.2,-,N/A,,Clear,130,2013-02-24 10:15:00
4:35 AM,21.2,21.2,100,29.80,7.0,SE,9.2,-,N/A,,Clear,130,2013-02-24 10:35:00
4:55 AM,21.2,19.4,93,29.80,7.0,SE,9.2,-,N/A,,Clear,130,2013-02-24 10:55:00
5:15 AM,21.2,19.4,93,29.80,7.0,ESE,8.1,-,N/A,,Clear,120,2013-02-24 11:15:00
5:35 AM,19.4,17.6,93,29.80,7.0,Calm,Calm,-,N/A,,Clear,0,2013-02-24 11:35:00
5:55 AM,19.4,17.6,93,29.80,7.0,ESE,9.2,-,N/A,,Clear,110,2013-02-24 11:55:00
6:15 AM,19.4,17.6,93,29.80,7.0,ESE,9.2,-,N/A,,Clear,110,2013-02-24 12:15:00
6:35 AM,17.6,15.8,93,29.80,7.0,East,5.8,-,N/A,,Clear,90,2013-02-24 12:35:00
6:55 AM,17.6,15.8,93,29.80,7.0,Calm,Calm,-,N/A,,Clear,0,2013-02-24 12:55:00
7:15 AM,17.6,15.8,93,29.81,10.0,East,9.2,-,N/A,,Clear,90,2013-02-24 13:15:00
7:35 AM,19.4,19.4,100,29.81,10.0,East,11.5,-,N/A,,Clear,100,2013-02-24 13:35:00
7:55 AM,21.2,19.4,93,29.81,10.0,ESE,12.7,-,N/A,,Clear,110,2013-02-24 13:55:00
8:15 AM,21.2,19.4,93,29.81,10.0,ESE,11.5,-,N/A,,Clear,110,2013-02-24 14:15:00
8:35 AM,23.0,19.4,86,29.81,10.0,ESE,10.4,-,N/A,,Clear,110,2013-02-24 14:35:00
8:55 AM,24.8,21.2,86,29.81,7.0,ESE,10.4,-,N/A,,Clear,110,2013-02-24 14:55:00
9:15 AM,26.6,21.2,80,29.81,10.0,ESE,10.4,-,N/A,,Clear,110,2013-02-24 15:15:00
9:35 AM,28.4,23.0,80,29.80,10.0,ESE,11.5,-,N/A,,Clear,120,2013-02-24 15:35:00
9:55 AM,28.4,23.0,80,29.81,10.0,ESE,10.4,-,N/A,,Clear,120,2013-02-24 15:55:00
10:15 AM,30.2,23.0,75,29.80,10.0,ESE,10.4,-,N/A,,Clear,120,2013-02-24 16:15:00
10:35 AM,32.0,24.8,75,29.80,10.0,ESE,8.1,-,N/A,,Clear,120,2013-02-24 16:35:00
10:55 AM,32.0,26.6,80,29.80,10.0,ESE,8.1,-,N/A,,Clear,120,2013-02-24 16:55:00
11:15 AM,32.0,26.6,80,29.80,10.0,ESE,9.2,-,N/A,,Clear,120,2013-02-24 17:15:00
11:35 AM,33.8,28.4,81,29.79,10.0,SE,10.4,-,N/A,,Clear,130,2013-02-24 17:35:00
11:55 AM,35.6,28.4,75,29.79,10.0,SSE,11.5,-,N/A,,Clear,150,2013-02-24 17:55:00
12:15 PM,35.6,28.4,75,29.79,10.0,SE,10.4,-,N/A,,Clear,140,2013-02-24 18:15:00
12:35 PM,35.6,28.4,75,29.79,10.0,SE,9.2,-,N/A,,Clear,140,2013-02-24 18:35:00
12:55 PM,35.6,28.4,75,29.79,10.0,SE,6.9,-,N/A,,Clear,130,2013-02-24 18:55:00
1:15 PM,35.6,30.2,81,29.79,10.0,SE,6.9,-,N/A,,Clear,130,2013-02-24 19:15:00
1:35 PM,37.4,30.2,75,29.78,10.0,SE,10.4,-,N/A,,Clear,130,2013-02-24 19:35:00
1:55 PM,37.4,30.2,75,29.77,10.0,SE,8.1,-,N/A,,Clear,130,2013-02-24 19:55:00
2:15 PM,37.4,30.2,75,29.76,10.0,SE,8.1,-,N/A,,Clear,130,2013-02-24 20:15:00
2:35 PM,37.4,30.2,75,29.76,10.0,ESE,8.1,-,N/A,,Clear,110,2013-02-24 20:35:00
2:55 PM,37.4,30.2,75,29.76,10.0,East,10.4,-,N/A,,Clear,100,2013-02-24 20:55:00
3:15 PM,37.4,30.2,75,29.76,10.0,East,8.1,-,N/A,,Clear,90,2013-02-24 21:15:00
3:35 PM,37.4,30.2,75,29.75,10.0,East,6.9,-,N/A,,Clear,90,2013-02-24 21:35:00
3:55 PM,37.4,32.0,81,29.76,10.0,Calm,Calm,-,N/A,,Clear,0,2013-02-24 21:55:00
4:15 PM,37.4,32.0,81,29.76,10.0,East,6.9,-,N/A,,Clear,80,2013-02-24 22:15:00
4:35 PM,35.6,32.0,87,29.77,10.0,NE,6.9,-,N/A,,Clear,40,2013-02-24 22:35:00
4:55 PM,35.6,32.0,87,29.76,10.0,NE,8.1,-,N/A,,Clear,50,2013-02-24 22:55:00
5:15 PM,35.6,32.0,87,29.78,10.0,Calm,Calm,-,N/A,,Scattered Clouds,0,2013-02-24 23:15:00
5:35 PM,33.8,32.0,93,29.79,10.0,North,6.9,-,N/A,,Overcast,360,2013-02-24 23:35:00
5:55 PM,33.8,32.0,93,29.80,10.0,North,10.4,-,N/A,,Overcast,360,2013-02-24 23:55:00
6:15 PM,33.8,32.0,93,29.81,10.0,North,11.5,-,N/A,,Overcast,10,2013-02-25 00:15:00
6:35 PM,33.8,32.0,93,29.82,10.0,North,9.2,-,N/A,,Overcast,360,2013-02-25 00:35:00
6:55 PM,33.8,32.0,93,29.84,10.0,North,11.5,-,N/A,,Overcast,10,2013-02-25 00:55:00
7:15 PM,33.8,32.0,93,29.86,10.0,North,12.7,-,N/A,,Overcast,350,2013-02-25 01:15:00
7:35 PM,33.8,32.0,93,29.87,10.0,North,13.8,-,N/A,,Mostly Cloudy,350,2013-02-25 01:35:00
7:55 PM,33.8,32.0,93,29.86,10.0,North,15.0,-,N/A,,Scattered Clouds,10,2013-02-25 01:55:00
8:15 PM,33.8,30.2,87,29.87,10.0,North,15.0,-,N/A,,Scattered Clouds,10,2013-02-25 02:15:00
8:35 PM,33.8,32.0,93,29.87,10.0,NNE,15.0,-,N/A,,Mostly Cloudy,20,2013-02-25 02:35:00
8:55 PM,33.8,30.2,87,29.87,10.0,North,15.0,-,N/A,,Scattered Clouds,10,2013-02-25 02:55:00
9:15 PM,33.8,32.0,93,29.85,10.0,NNE,16.1,23.0,N/A,,Mostly Cloudy,30,2013-02-25 03:15:00
9:35 PM,33.8,30.2,87,29.86,10.0,NNE,17.3,-,N/A,,Overcast,20,2013-02-25 03:35:00
9:55 PM,33.8,30.2,87,29.86,10.0,North,16.1,-,N/A,,Overcast,10,2013-02-25 03:55:00
10:15 PM,32.0,30.2,93,29.86,7.0,NNE,19.6,-,N/A,,Overcast,20,2013-02-25 04:15:00
10:35 PM,32.0,30.2,93,29.88,7.0,North,19.6,23.0,N/A,,Overcast,360,2013-02-25 04:35:00
10:55 PM,32.0,30.2,93,29.90,5.0,North,19.6,-,N/A,Snow,Light Snow,360,2013-02-25 04:55:00
11:15 PM,32.0,32.0,100,29.91,4.0,North,17.3,-,0.02,Snow,Light Snow,360,2013-02-25 05:15:00
11:35 PM,32.0,32.0,100,29.90,2.5,NNE,16.1,-,0.08,Snow,Light Snow,20,2013-02-25 05:35:00
11:55 PM,32.0,32.0,100,29.86,2.0,NNE,18.4,21.9,0.16,Snow,Light Snow,20,2013-02-25 05:55:00